CZ-2C R/B

Satellite information

Favourite Embed

Satellite Type and Status

ROCKET BODYIN ORBIT

Key statistics

Satellite CZ-2C R/B at a glance.

Uptime

1911

Days in orbit

Revolutions

≈ 14.5

Per day

Orbit

SSO

Sun Synchronous Orbit

Inclination

98.7

Latest

Satellite identification and parameters

Extended collection of information and parameters for CZ-2C R/B.

Object identification

Identified? True

Debris? False

Object name: CZ-2C R/B

International designator: 2020-036B

Object number (NORAD): 45722

Object ID (CCSDS): 45722

Country: PEOPLES REPUBLIC OF CHINA (PRC)

Current information (Y/N): Y

RCS size: LARGE

Orbital parameters

Period: 99.485 minutes

Inclination: 98.7439 deg

SMA: 7112.091 km

Apoapsis: 770.593 km

Periapsis: 697.318 km

RAAN: 257.0312 deg

Eccentricy: 0.00515144

Argument of periapsis: 82.7187 deg

Mean anomaly: 277.9856 deg

Mean motion: 14.47460882 rev/day

Mean motion (dot): 0.00000554 rev/day2

B* drag term: 0.00016154246 1/REarth

Two-line elements (TLE)

Creation date: Sept. 3, 2025, 2:21 a.m.

Reference frame: TEME

Reference center: EARTH

Epoch: Sept. 2, 2025, 9:47 p.m. UTC

TLE line 0: 0 CZ-2C R/B

TLE line 1: 1 45722U 20036B 25245.90814144 .00000554 00000-0 16154-3 0 9994

TLE line 2: 2 45722 98.7439 257.0312 0051514 82.7187 277.9856 14.47460882276161

Live tracking on map

Real-time ground track for satellite CZ-2C R/B.

In-orbit conjunctions

A list of the most updated potential collisions computed for object CZ-2C R/B.

Target Orbit TCA Probability of collision Miss distance Type
METEOR 2-8 DEB LEO 2025-08-27 09:25:55 0.0006231011 198.0 (m) DEBRIS
COSMOS 2251 DEB LEO 2025-05-07 03:12:59 0.000166507 130.0 (m) DEBRIS
FENGYUN 1C DEB SSO 2025-04-07 23:09:15 0.0002243568 480.0 (m) DEBRIS
FENGYUN 1C DEB SSO 2025-03-04 05:02:45 0.0001129989 469.0 (m) DEBRIS
CZ-6A DEB LEO 2024-11-14 04:35:16 0.0002335994 569.0 (m) DEBRIS

Associated space launch

Haiyang is a series of Chinese marine remote sensing satellites. Haiyang 1C is the follow-up of the Haiyang 1A and 1B satellites. It is intended for ocean monitoring and will be providing data on the temperature and dynamics of coastal waters and global oceans in China.

CZ-2C R/B was lifted into orbit during the mission ‘Long March 2C | Haiyang 1D’, on board a Long March 2 space rocket.

The launch took place on June 10, 2020, 6:31 p.m. from Launch Complex 9.

For more information about the launch, click the button.

Launch to space Long March 2C | Haiyang 1D
Long March 2C | Haiyang 1D

Agency: N/A

Status: Launch Successful

Launch date: June 10, 2020, 6:31 p.m. UTC

Rocket: Long March 2

Launch pad: Launch Complex 9

Location: Taiyuan Satellite Launch Center, People's Republic of China

...

Latest news about this satellite

News about space launch
Long March 2C lofts Haiyang-1D

News about space launch
China launches ocean monitoring satellite

News about space launch
China launches Haiyang-1D ocean observation satellite


Newsletter sign-up

Weekly statistics, charts and insights to help you stay on top of the space industry.